Terminal Aerodrome Forecast
Issued by NWS Wilmington, OH

Current Version | Previous Version | Graphics & Text | Print | Product List | Glossary On
Versions: 1 2 3 4 5 6 7 8 9 10 11 12 13 14 15 16 17 18 19 20
609
FTUS41 KILN 160542
TAFCMH
TAF
KCMH 160542Z 1606/1706 22004KT 2SM -SN BR BKN018 OVC035
     FM160630 27010KT 4SM -SN BR SCT015 OVC035
      TEMPO 1607/1609 BKN015
     FM160900 27007KT P6SM SCT015 BKN070
     FM161200 26007KT P6SM SCT020
     FM161900 26007KT P6SM BKN022
     FM170300 24003KT P6SM BKN015 OVC040=

USA.gov is the U.S. government's official web portal to all federal, state and local government web resources and services.